Total_Precipitation_Accumulation
0.05 0.06 0.07 0.08 0.08 0.07 0.12 0.08 0.10 0.06 0.07 0.09 0.07 0.08 0.07 0.07 0.07 0.06 0.06 0.07 0.07 0.08 0.13 0.15 0.15 0.14 0.14 0.16 0.21 0.21 0.18 0.18 0.16 0.16 0.18 0.18 0.20 0.23 0.23 0.22 0.37 0.33 0.21 0.07 0.02 0.01 0.01 0.00 0.02 0.03 0.06 0.09 0.15 0.16 0.15 0.06 0.04 0.06 0.04 0.07 0.09 0.13 0.10
0.07 0.07 0.08 0.09 0.09 0.08 0.08 0.13 0.10 0.07 0.08 0.07 0.06 0.07 0.08 0.09 0.12 0.07 0.08 0.06 0.06 0.06 0.07 0.12 0.14 0.11 0.10 0.12 0.19 0.23 0.23 0.22 0.19 0.23 0.22 0.19 0.19 0.21 0.20 0.18 0.23 0.28 0.23 0.15 0.05 0.02 0.01 0.01 0.01 0.03 0.04 0.07 0.09 0.13 0.17 0.15 0.10 0.07 0.08 0.07 0.11 0.14 0.10
0.11 0.11 0.11 0.11 0.09 0.09 0.11 0.12 0.13 0.10 0.13 0.14 0.13 0.10 0.08 0.07 0.07 0.06 0.06 0.06 0.05 0.05 0.06 0.08 0.11 0.12 0.12 0.12 0.21 0.22 0.24 0.24 0.25 0.24 0.22 0.22 0.16 0.14 0.12 0.14 0.19 0.23 0.22 0.16 0.12 0.05 0.03 0.02 0.02 0.03 0.04 0.05 0.09 0.11 0.09 0.15 0.18 0.15 0.14 0.11 0.11 0.11 0.09
0.09 0.10 0.10 0.11 0.11 0.15 0.10 0.11 0.09 0.11 0.14 0.15 0.12 0.14 0.16 0.12 0.09 0.08 0.09 0.09 0.07 0.06 0.06 0.07 0.10 0.11 0.12 0.17 0.19 0.20 0.20 0.23 0.24 0.24 0.24 0.22 0.18 0.18 0.12 0.09 0.10 0.15 0.19 0.16 0.16 0.09 0.06 0.03 0.03 0.03 0.04 0.05 0.06 0.10 0.14 0.15 0.22 0.23 0.21 0.17 0.17 0.09 0.10
0.09 0.10 0.11 0.11 0.09 0.08 0.07 0.07 0.07 0.08 0.08 0.08 0.09 0.11 0.12 0.12 0.12 0.12 0.12 0.11 0.11 0.12 0.11 0.10 0.08 0.08 0.08 0.10 0.16 0.19 0.22 0.23 0.24 0.26 0.26 0.24 0.18 0.18 0.15 0.13 0.13 0.15 0.16 0.25 0.19 0.13 0.08 0.04 0.04 0.04 0.05 0.05 0.08 0.10 0.15 0.18 0.21 0.23 0.27 0.25 0.21 0.16 0.11
0.12 0.13 0.11 0.10 0.10 0.09 0.12 0.09 0.09 0.09 0.11 0.08 0.06 0.07 0.08 0.09 0.09 0.09 0.11 0.12 0.13 0.12 0.12 0.13 0.12 0.10 0.12 0.12 0.14 0.15 0.14 0.19 0.26 0.28 0.25 0.23 0.25 0.26 0.21 0.19 0.17 0.16 0.20 0.21 0.20 0.17 0.11 0.07 0.06 0.07 0.07 0.07 0.08 0.10 0.13 0.21 0.23 0.22 0.27 0.29 0.29 0.28 0.21
0.14 0.14 0.13 0.13 0.12 0.12 0.11 0.11 0.10 0.09 0.08 0.08 0.08 0.09 0.09 0.09 0.09 0.08 0.09 0.09 0.10 0.10 0.10 0.12 0.12 0.12 0.12 0.13 0.13 0.14 0.13 0.14 0.15 0.23 0.25 0.26 0.27 0.25 0.28 0.34 0.35 0.29 0.23 0.21 0.21 0.24 0.13 0.10 0.13 0.08 0.10 0.07 0.06 0.08 0.09 0.13 0.20 0.26 0.24 0.26 0.27 0.27 0.24
0.17 0.16 0.15 0.16 0.15 0.14 0.12 0.12 0.12 0.10 0.10 0.09 0.09 0.09 0.11 0.09 0.12 0.13 0.12 0.10 0.08 0.08 0.09 0.11 0.12 0.12 0.12 0.11 0.11 0.11 0.10 0.11 0.14 0.18 0.23 0.21 0.23 0.27 0.35 0.38 0.36 0.34 0.32 0.32 0.31 0.25 0.20 0.16 0.11 0.09 0.07 0.09 0.12 0.15 0.15 0.11 0.13 0.19 0.20 0.25 0.28 0.26 0.25
0.21 0.20 0.21 0.17 0.17 0.18 0.15 0.15 0.14 0.12 0.13 0.13 0.12 0.13 0.15 0.14 0.14 0.13 0.12 0.11 0.11 0.10 0.10 0.09 0.10 0.10 0.14 0.11 0.10 0.10 0.10 0.10 0.12 0.16 0.19 0.19 0.22 0.28 0.34 0.37 0.36 0.38 0.39 0.38 0.34 0.31 0.22 0.19 0.14 0.12 0.11 0.11 0.13 0.16 0.15 0.12 0.11 0.15 0.17 0.18 0.20 0.23 0.27
0.22 0.24 0.33 0.22 0.20 0.19 0.21 0.19 0.16 0.14 0.14 0.17 0.21 0.22 0.21 0.20 0.18 0.16 0.15 0.14 0.12 0.10 0.09 0.09 0.09 0.09 0.08 0.09 0.10 0.11 0.12 0.13 0.13 0.13 0.16 0.19 0.21 0.24 0.32 0.37 0.40 0.39 0.35 0.36 0.41 0.33 0.27 0.27 0.19 0.13 0.10 0.10 0.08 0.07 0.06 0.07 0.07 0.08 0.08 0.09 0.17 0.19 0.24
0.30 0.29 0.29 0.28 0.28 0.30 0.27 0.25 0.19 0.17 0.21 0.28 0.38 0.37 0.37 0.32 0.26 0.21 0.20 0.18 0.15 0.13 0.11 0.10 0.10 0.09 0.08 0.08 0.09 0.11 0.13 0.16 0.17 0.21 0.23 0.15 0.15 0.21 0.28 0.34 0.38 0.35 0.32 0.34 0.32 0.33 0.27 0.23 0.18 0.11 0.11 0.10 0.08 0.07 0.06 0.08 0.08 0.08 0.09 0.14 0.18 0.23 0.22
0.38 0.31 0.28 0.29 0.29 0.30 0.28 0.29 0.22 0.25 0.32 0.40 0.49 0.56 0.52 0.47 0.38 0.29 0.25 0.21 0.19 0.16 0.14 0.13 0.12 0.12 0.12 0.12 0.11 0.11 0.12 0.14 0.18 0.21 0.21 0.24 0.26 0.24 0.22 0.24 0.31 0.34 0.34 0.29 0.33 0.34 0.29 0.29 0.20 0.11 0.09 0.08 0.11 0.11 0.10 0.11 0.12 0.14 0.16 0.17 0.17 0.16 0.17
0.35 0.34 0.34 0.33 0.37 0.32 0.30 0.29 0.25 0.31 0.41 0.45 0.56 0.67 0.72 0.66 0.50 0.38 0.28 0.23 0.20 0.18 0.17 0.16 0.18 0.16 0.15 0.13 0.12 0.14 0.14 0.14 0.14 0.17 0.22 0.25 0.27 0.30 0.36 0.37 0.27 0.20 0.28 0.33 0.33 0.33 0.29 0.21 0.20 0.25 0.15 0.08 0.09 0.13 0.17 0.14 0.17 0.19 0.20 0.19 0.18 0.15 0.12
0.40 0.39 0.43 0.43 0.43 0.40 0.38 0.35 0.32 0.37 0.52 0.62 0.71 0.85 0.90 0.71 0.59 0.45 0.36 0.29 0.25 0.22 0.19 0.19 0.20 0.21 0.19 0.15 0.15 0.17 0.17 0.15 0.15 0.15 0.16 0.21 0.26 0.28 0.28 0.39 0.39 0.37 0.26 0.23 0.27 0.32 0.30 0.21 0.30 0.22 0.22 0.38 0.26 0.25 0.27 0.25 0.22 0.20 0.21 0.23 0.22 0.17 0.17
0.45 0.46 0.48 0.48 0.56 0.52 0.50 0.42 0.40 0.52 0.69 0.70 0.80 0.83 1.13 0.87 0.82 0.68 0.51 0.39 0.33 0.31 0.27 0.23 0.22 0.21 0.19 0.17 0.17 0.17 0.17 0.18 0.17 0.17 0.18 0.18 0.18 0.18 0.18 0.18 0.18 0.23 0.35 0.36 0.25 0.19 0.17 0.14 0.14 0.15 0.17 0.19 0.26 0.40 0.40 0.34 0.29 0.24 0.25 0.27 0.28 0.29 0.28
0.38 0.38 0.38 0.37 0.40 0.45 0.44 0.34 0.39 0.57 0.69 0.76 0.90 1.05 1.08 1.03 0.78 0.62 0.54 0.44 0.39 0.34 0.30 0.26 0.27 0.27 0.24 0.20 0.19 0.17 0.23 0.20 0.19 0.21 0.22 0.19 0.15 0.14 0.13 0.13 0.11 0.13 0.14 0.15 0.22 0.22 0.17 0.15 0.13 0.18 0.26 0.31 0.34 0.32 0.32 0.35 0.38 0.39 0.44 0.47 0.46 0.39 0.27
0.27 0.29 0.33 0.33 0.34 0.35 0.32 0.30 0.34 0.48 0.64 0.69 0.83 1.28 1.41 1.17 0.79 0.58 0.47 0.40 0.37 0.35 0.33 0.29 0.27 0.27 0.27 0.22 0.20 0.17 0.24 0.32 0.39 0.34 0.28 0.23 0.17 0.13 0.13 0.11 0.08 0.10 0.18 0.21 0.23 0.27 0.20 0.17 0.17 0.21 0.23 0.27 0.29 0.30 0.31 0.34 0.42 0.44 0.35 0.38 0.41 0.29 0.20
0.29 0.29 0.30 0.33 0.33 0.33 0.35 0.31 0.30 0.39 0.50 0.59 0.79 0.92 0.94 0.90 0.81 0.56 0.46 0.42 0.38 0.36 0.36 0.30 0.32 0.27 0.27 0.26 0.20 0.20 0.28 0.34 0.47 0.61 0.38 0.23 0.20 0.18 0.16 0.11 0.08 0.09 0.13 0.19 0.31 0.34 0.31 0.40 0.31 0.27 0.25 0.30 0.37 0.36 0.36 0.45 0.49 0.32 0.22 0.29 0.29 0.27 0.18
0.30 0.28 0.29 0.30 0.31 0.33 0.36 0.36 0.32 0.35 0.48 0.67 0.83 0.89 0.91 0.83 0.75 0.65 0.56 0.53 0.49 0.42 0.34 0.28 0.26 0.30 0.33 0.27 0.18 0.19 0.32 0.50 0.58 0.60 0.44 0.24 0.18 0.17 0.15 0.10 0.09 0.11 0.14 0.16 0.19 0.25 0.30 0.33 0.36 0.42 0.42 0.31 0.27 0.33 0.48 0.39 0.30 0.26 0.30 0.32 0.27 0.24 0.25
0.25 0.26 0.28 0.31 0.37 0.38 0.38 0.37 0.35 0.39 0.51 0.62 0.62 0.74 0.75 0.60 0.58 0.61 0.58 0.56 0.48 0.51 0.45 0.36 0.33 0.29 0.31 0.40 0.35 0.33 0.45 0.60 0.92 0.65 0.60 0.36 0.25 0.18 0.12 0.08 0.09 0.11 0.14 0.16 0.17 0.17 0.15 0.18 0.22 0.26 0.34 0.38 0.35 0.26 0.28 0.49 0.30 0.25 0.24 0.28 0.27 0.22 0.21
0.27 0.31 0.35 0.34 0.35 0.38 0.38 0.38 0.36 0.32 0.43 0.49 0.47 0.56 0.77 0.64 0.55 0.49 0.48 0.46 0.43 0.40 0.40 0.40 0.35 0.32 0.29 0.36 0.45 0.48 0.48 0.64 0.75 0.71 0.54 0.46 0.39 0.22 0.13 0.11 0.15 0.17 0.17 0.21 0.17 0.17 0.17 0.18 0.21 0.29 0.32 0.33 0.30 0.31 0.26 0.35 0.25 0.28 0.21 0.24 0.28 0.27 0.22
0.35 0.34 0.28 0.25 0.29 0.33 0.34 0.33 0.32 0.36 0.39 0.36 0.42 0.56 0.75 0.70 0.59 0.47 0.49 0.46 0.41 0.36 0.34 0.32 0.33 0.34 0.36 0.37 0.44 0.55 0.72 0.65 0.80 0.79 0.71 0.51 0.38 0.30 0.26 0.24 0.22 0.22 0.26 0.24 0.22 0.20 0.20 0.21 0.23 0.22 0.25 0.30 0.28 0.25 0.40 0.25 0.21 0.17 0.15 0.17 0.19 0.21 0.22
0.35 0.30 0.28 0.27 0.31 0.32 0.31 0.30 0.29 0.39 0.33 0.32 0.41 0.53 0.64 0.67 0.63 0.56 0.49 0.45 0.39 0.30 0.26 0.25 0.28 0.30 0.34 0.40 0.55 0.64 0.72 0.81 0.96 0.90 0.92 0.85 0.63 0.51 0.48 0.56 0.55 0.46 0.36 0.31 0.24 0.22 0.24 0.22 0.21 0.22 0.20 0.18 0.22 0.21 0.17 0.17 0.18 0.17 0.18 0.18 0.16 0.15 0.15
0.34 0.25 0.26 0.30 0.31 0.31 0.29 0.28 0.33 0.35 0.28 0.30 0.35 0.46 0.56 0.60 0.61 0.51 0.45 0.46 0.36 0.30 0.29 0.29 0.28 0.26 0.29 0.36 0.40 0.42 0.58 0.83 0.87 0.90 0.85 0.89 0.83 0.75 0.69 0.65 0.67 0.58 0.49 0.38 0.29 0.26 0.23 0.21 0.15 0.15 0.15 0.14 0.12 0.18 0.21 0.19 0.18 0.17 0.18 0.19 0.15 0.12 0.11
0.26 0.27 0.28 0.29 0.30 0.33 0.33 0.32 0.33 0.28 0.28 0.29 0.32 0.35 0.45 0.47 0.52 0.50 0.53 0.48 0.37 0.33 0.32 0.31 0.31 0.31 0.34 0.40 0.39 0.42 0.43 0.62 0.64 0.59 0.73 0.71 0.74 0.82 0.75 0.78 0.66 0.53 0.40 0.43 0.40 0.30 0.21 0.16 0.15 0.14 0.14 0.14 0.15 0.17 0.23 0.25 0.22 0.20 0.18 0.17 0.15 0.14 0.12
0.29 0.26 0.25 0.27 0.28 0.32 0.35 0.38 0.32 0.26 0.28 0.31 0.31 0.30 0.38 0.45 0.42 0.44 0.42 0.46 0.40 0.31 0.30 0.31 0.33 0.33 0.34 0.37 0.44 0.51 0.60 0.78 0.55 0.45 0.47 0.64 0.77 0.73 0.76 0.74 0.67 0.47 0.41 0.37 0.27 0.22 0.21 0.19 0.17 0.19 0.22 0.17 0.18 0.21 0.23 0.26 0.27 0.25 0.23 0.19 0.17 0.17 0.17
0.30 0.28 0.30 0.31 0.31 0.34 0.35 0.37 0.29 0.28 0.30 0.33 0.32 0.30 0.34 0.43 0.40 0.44 0.36 0.36 0.44 0.40 0.35 0.33 0.35 0.34 0.34 0.34 0.36 0.42 0.49 0.47 0.44 0.48 0.62 0.48 0.41 0.59 0.72 0.86 0.65 0.46 0.40 0.34 0.27 0.22 0.16 0.15 0.23 0.21 0.27 0.30 0.26 0.24 0.21 0.20 0.22 0.27 0.26 0.21 0.19 0.15 0.15
0.42 0.44 0.47 0.49 0.43 0.44 0.39 0.32 0.28 0.29 0.35 0.37 0.34 0.37 0.35 0.35 0.35 0.43 0.45 0.32 0.33 0.36 0.32 0.33 0.36 0.41 0.40 0.49 0.54 0.54 0.53 0.51 0.50 0.43 0.37 0.34 0.33 0.37 0.43 0.62 0.65 0.61 0.57 0.40 0.39 0.41 0.28 0.26 0.27 0.29 0.27 0.25 0.22 0.18 0.17 0.18 0.21 0.22 0.27 0.31 0.26 0.25 0.21
0.71 0.62 0.64 0.51 0.52 0.60 0.50 0.39 0.40 0.40 0.41 0.39 0.37 0.40 0.37 0.39 0.37 0.35 0.34 0.26 0.28 0.34 0.38 0.38 0.40 0.40 0.40 0.39 0.40 0.43 0.44 0.42 0.39 0.35 0.36 0.41 0.40 0.35 0.33 0.36 0.52 0.57 0.50 0.39 0.38 0.43 0.40 0.42 0.40 0.33 0.25 0.24 0.24 0.19 0.15 0.17 0.21 0.22 0.23 0.29 0.35 0.35 0.27
0.82 0.78 0.72 0.56 0.42 0.50 0.59 0.53 0.46 0.42 0.44 0.38 0.42 0.47 0.41 0.37 0.36 0.39 0.34 0.30 0.30 0.31 0.34 0.32 0.30 0.29 0.29 0.29 0.28 0.30 0.31 0.31 0.31 0.31 0.32 0.35 0.38 0.34 0.32 0.31 0.36 0.40 0.36 0.33 0.40 0.34 0.38 0.37 0.35 0.30 0.28 0.25 0.23 0.21 0.18 0.17 0.18 0.23 0.25 0.30 0.37 0.37 0.30
0.64 0.66 0.58 0.54 0.60 0.53 0.37 0.38 0.35 0.38 0.43 0.41 0.48 0.47 0.41 0.41 0.50 0.42 0.34 0.31 0.32 0.31 0.27 0.26 0.23 0.25 0.24 0.23 0.23 0.25 0.26 0.26 0.27 0.26 0.26 0.29 0.31 0.30 0.30 0.31 0.31 0.34 0.34 0.34 0.36 0.37 0.40 0.35 0.33 0.28 0.22 0.20 0.20 0.20 0.22 0.25 0.26 0.22 0.25 0.30 0.31 0.32 0.29
0.55 0.60 0.66 0.54 0.60 0.69 0.48 0.41 0.40 0.38 0.40 0.45 0.51 0.48 0.44 0.45 0.52 0.48 0.41 0.31 0.27 0.25 0.24 0.23 0.21 0.22 0.23 0.21 0.21 0.21 0.21 0.24 0.28 0.28 0.27 0.26 0.23 0.22 0.22 0.24 0.28 0.31 0.33 0.34 0.35 0.35 0.37 0.41 0.39 0.34 0.27 0.22 0.18 0.16 0.19 0.24 0.32 0.33 0.34 0.33 0.29 0.28 0.26
0.44 0.46 0.54 0.55 0.68 0.72 0.62 0.46 0.44 0.44 0.43 0.44 0.53 0.52 0.49 0.49 0.55 0.52 0.47 0.42 0.31 0.24 0.24 0.22 0.20 0.20 0.21 0.20 0.19 0.20 0.21 0.25 0.29 0.24 0.23 0.21 0.21 0.21 0.20 0.20 0.20 0.24 0.28 0.31 0.32 0.32 0.33 0.43 0.35 0.37 0.36 0.32 0.26 0.22 0.21 0.18 0.19 0.22 0.22 0.26 0.31 0.28 0.25
0.40 0.36 0.39 0.41 0.54 0.63 0.62 0.52 0.48 0.49 0.50 0.50 0.51 0.55 0.55 0.56 0.54 0.52 0.49 0.33 0.27 0.24 0.24 0.23 0.23 0.22 0.23 0.22 0.22 0.22 0.21 0.22 0.25 0.20 0.18 0.16 0.15 0.15 0.15 0.15 0.17 0.20 0.23 0.24 0.26 0.28 0.28 0.29 0.31 0.33 0.36 0.38 0.34 0.28 0.24 0.23 0.20 0.19 0.22 0.23 0.19 0.19 0.19
0.32 0.28 0.32 0.41 0.43 0.55 0.57 0.47 0.43 0.49 0.56 0.61 0.59 0.54 0.59 0.46 0.48 0.56 0.47 0.32 0.24 0.23 0.22 0.22 0.21 0.21 0.20 0.18 0.18 0.20 0.20 0.20 0.21 0.18 0.16 0.15 0.14 0.12 0.12 0.13 0.14 0.15 0.16 0.17 0.19 0.21 0.22 0.22 0.25 0.28 0.29 0.30 0.30 0.30 0.29 0.26 0.24 0.24 0.23 0.21 0.20 0.15 0.13
0.35 0.30 0.29 0.37 0.36 0.40 0.54 0.53 0.46 0.47 0.58 0.64 0.57 0.54 0.43 0.38 0.36 0.33 0.33 0.29 0.27 0.25 0.25 0.22 0.22 0.21 0.20 0.21 0.21 0.21 0.20 0.18 0.18 0.19 0.19 0.16 0.13 0.12 0.11 0.12 0.12 0.13 0.13 0.13 0.14 0.16 0.17 0.18 0.20 0.24 0.27 0.29 0.26 0.25 0.24 0.23 0.21 0.20 0.21 0.20 0.19 0.19 0.16